Find Starlink 4470

NORAD ID: 53655 Int'l Des: 2022-105 Owner: SPXS Country: US Constellation: starlink operational
LEOCIRCULARRETROGRADESSO

リアルタイム位置

3D地球を読み込み中...

Starlink 4470について

説明を読み込み中...

次回通過

Passes for default location (London). Set your location on the main map for personalized predictions.

高度履歴

Loading altitude history...

軌道要素

1 53655U 22105H 26126.58335648 .00601491 00000-0 19801-1 0 9994
2 53655 97.6037 9.1684 0001339 72.2924 63.0850 15.29259944 5713
Epoch: May 6, 2026 • Age: 9 hours

現在のステータス

高度 489.3 km
速度 7.63 km/s
衛星直下点 82.27°N, 78.39°E
打ち上げ日 Aug 31, 2022
運用期間 3.6 years
タイプ internet

技術仕様

分類 Payload
質量 300.00 kg
乾燥質量 290.00 kg
総質量 300.00 kg
長さ 0.20 m
直径 2.80 m
スパン 9.00 m
形状 Box + pan
製造者 SPXS
バスタイプ Starlink
フェーズステータス In Orbit
所有者/国 SPXS/US

Most Searched